Regional Weather Roundup
Issued by NWS

Home | Current Version | Previous Version | Text Only | Print | Product List | Glossary On
Versions: 1 2 3 4 5 6 7 8 9 10 11 12 13 14 15 16 17 18 19 20 21 22 23 24 25 26 27 28 29 30 31 32 33 34 35 36 37 38 39 40 41 42 43 44 45 46 47 48 49 50
000
ASUS44 KMEG 291510
RWRTN
TENNESSEE HOURLY STATE WEATHER ROUNDUP
NATIONAL WEATHER SERVICE MEMPHIS TN
900 AM CST MON DEC 29 2014

TNZ002-004-019-021-049-052-054-088>092-291600-
WEST TENNESSEE

CITY           SKY/WX    TMP DP  RH WIND       PRES   REMARKS
MEMPHIS INTL   CLOUDY    38  34  85 NE8       30.23R WCI  32
NWS MEMPHIS      N/A     36 N/A N/A MISG        N/A
JACKSON        CLOUDY    35  31  85 NE8       30.24R WCI  29
DYERSBURG      CLOUDY    34  19  55 NE9       30.28R WCI  26
UNION CITY     CLOUDY    30  27  86 NE9       30.25R WCI  22
PARIS          CLOUDY    32  28  86 NE8       30.24R WCI  25
HUNTINGDON     CLOUDY    33  28  82 NE7       30.24R WCI  27
LEXINGTON      CLOUDY    34  34 100 N5        30.21R WCI  30
SAVANNAH       CLOUDY    36  36 100 N3        30.21R
$$

TNZ008-025-027-028-033-062-065-066-291600-
NORTH MIDDLE TENNESSEE

CITY           SKY/WX    TMP DP  RH WIND       PRES   REMARKS
NASHVILLE      CLOUDY    37  35  92 N9        30.23R FOG     WCI  30
CLARKSVILLE    CLOUDY    36  30  79 NE8       30.25R WCI  30
SMYRNA         CLOUDY    38  37  96 N8        30.23R FOG     WCI  32
COOKEVILLE     CLOUDY    39  39 100 N3        30.16R
CROSSVILLE     CLOUDY    42  38  85 N5        30.14R
$$

TNZ061-075-076-078-094-096-097-291600-
SOUTH MIDDLE TENNESSEE

CITY           SKY/WX    TMP DP  RH WIND       PRES   REMARKS
FAYETTEVILLE   CLOUDY    37  36  93 N7        30.16R WCI  32
TULLAHOMA      CLOUDY    37  37 100 N7        30.17R VSB 1/2 WCI  32
WINCHESTER     CLOUDY    39  39 100 VRB5      30.17R
MCMINNVILLE    CLOUDY    39  39 100 CALM      30.17R
COLUMBIA       CLOUDY   N/A N/A N/A N6        30.18R
SHELBYVILLE    CLOUDY    39  39 100 N9        30.19R WCI  33
$$

TNZ017-018-042-046-047-291600-
NORTHEAST TENNESSEE

CITY           SKY/WX    TMP DP  RH WIND       PRES   REMARKS
TRI CITIES     CLOUDY    50  48  93 NW5       30.10R FOG
ELIZABETHTON   CLOUDY    48  48 100 CALM      30.09R
$$

TNZ012-013-036-069-073-074-291600-
CENTRAL EAST TENNESSEE

CITY           SKY/WX    TMP DP  RH WIND       PRES   REMARKS
KNOXVILLE      CLOUDY    47  44  90 NW5       30.13R
OAK RIDGE      CLOUDY    45  43  93 E5        30.14R FOG
GATLINBURG     CLOUDY    45  45 100 W3        30.12R
MORRISTOWN     CLOUDY    46  46 100 N5        30.12R VSB 1/4
$$

TNZ083-085-099-291600-
SOUTHEAST TENNESSEE

CITY           SKY/WX    TMP DP  RH WIND       PRES   REMARKS
CHATTANOOGA    CLOUDY    50  47  89 N6        30.14R FOG
$$

SKY/WX REPORTED AS FAIR MEANS FEW OR NO CLOUDS BELOW
12 THOUSAND FEET.



USA.gov is the U.S. government's official web portal to all federal, state and local government web resources and services.